Pevek Airport


Codes: UHMP/PWE
Name: Pevek Airport
City: Pevek
Country: Russia
Elevation: 11 ft.
Wikipedia:

Photos at Pevek Airport


   Photos courtesy of SpottingLog. You can add your own sightings and photos by signing up for a free trial today.



No photos found.

Weather at Pevek Airport


Time (UTC)DescriptionTempratureWindCloud coverageVisibilityPressureHumidity
25-Jun-2024 12:00Overcast Clouds2°C7 mph, NE87%10000m1002hPa83%
25-Jun-2024 15:00Broken Clouds2°C7 mph, NE66%10000m1002hPa84%
25-Jun-2024 18:00Scattered Clouds2°C9 mph, NE50%10000m1001hPa85%
25-Jun-2024 21:00Broken Clouds2°C9 mph, NE71%10000m999hPa88%
26-Jun-2024 00:00Overcast Clouds3°C7 mph, NE86%10000m999hPa85%
26-Jun-2024 03:00Overcast Clouds3°C4 mph, NE100%10000m998hPa82%
26-Jun-2024 06:00Overcast Clouds2°C9 mph, NE100%2785m998hPa88%
26-Jun-2024 09:00Broken Clouds3°C7 mph, NE64%3348m998hPa86%
26-Jun-2024 12:00Broken Clouds1°C4 mph, NE54%2660m999hPa91%
26-Jun-2024 15:00Few Clouds2°C7 mph, NE16%7648m1000hPa86%
26-Jun-2024 18:00Few Clouds2°C7 mph, NE13%10000m1001hPa88%
26-Jun-2024 21:00Clear Sky2°C4 mph, NE0%10000m1002hPa87%
27-Jun-2024 00:00Clear Sky3°C7 mph, NE0%10000m1003hPa83%
27-Jun-2024 03:00Clear Sky4°C13 mph, NE4%8159m1003hPa78%
27-Jun-2024 06:00Clear Sky5°C16 mph, NE3%10000m1003hPa74%
27-Jun-2024 09:00Broken Clouds5°C13 mph, E74%10000m1004hPa76%
27-Jun-2024 12:00Overcast Clouds6°C9 mph, E87%10000m1005hPa70%
27-Jun-2024 15:00Overcast Clouds7°C9 mph, E100%10000m1005hPa67%
27-Jun-2024 18:00Overcast Clouds6°C7 mph, E100%10000m1006hPa70%
27-Jun-2024 21:00Overcast Clouds5°C2 mph, N100%10000m1006hPa74%
28-Jun-2024 00:00Overcast Clouds5°C7 mph, NE100%10000m1007hPa72%
28-Jun-2024 03:00Overcast Clouds7°C11 mph, NE100%10000m1007hPa67%
28-Jun-2024 06:00Overcast Clouds7°C13 mph, NE100%10000m1007hPa70%
28-Jun-2024 09:00Overcast Clouds7°C16 mph, NE100%10000m1007hPa70%
28-Jun-2024 12:00Overcast Clouds6°C11 mph, E99%10000m1007hPa72%
28-Jun-2024 15:00Overcast Clouds6°C9 mph, NE98%10000m1008hPa74%
28-Jun-2024 18:00Overcast Clouds5°C9 mph, NE99%10000m1009hPa77%
28-Jun-2024 21:00Overcast Clouds5°C4 mph, NE100%10000m1009hPa79%
29-Jun-2024 00:00Overcast Clouds6°C7 mph, NE100%10000m1008hPa77%
29-Jun-2024 03:00Overcast Clouds6°C13 mph, NE85%10000m1008hPa73%
29-Jun-2024 06:00Overcast Clouds7°C16 mph, NE86%10000m1008hPa72%
29-Jun-2024 09:00Broken Clouds6°C16 mph, NE58%10000m1008hPa77%
29-Jun-2024 12:00Scattered Clouds4°C16 mph, NE38%10000m1007hPa86%
29-Jun-2024 15:00Clear Sky3°C11 mph, NE5%207m1007hPa91%
29-Jun-2024 18:00Clear Sky4°C4 mph, NE3%7413m1007hPa86%
29-Jun-2024 21:00Clear Sky4°C2 mph, E0%10000m1007hPa88%
30-Jun-2024 00:00Clear Sky4°C4 mph, E4%10000m1007hPa88%
30-Jun-2024 03:00Few Clouds4°C4 mph, NE11%10000m1006hPa85%
30-Jun-2024 06:00Clear Sky6°C7 mph, NE9%10000m1006hPa80%
30-Jun-2024 09:00Clear Sky6°C7 mph, E7%10000m1006hPa77%